Theta_e
304 302 300 300 301 302 303 303 304 304 305 306 305 305 304 302 301 301 299 296 292 289 288 287 288 292 292 291 290 289 289 288
302 300 299 299 300 301 302 303 303 303 304 304 304 304 303 301 299 297 294 293 291 287 286 285 286 288 289 289 288 288 286 287
300 299 298 298 299 300 301 302 303 302 302 302 302 302 301 298 296 294 292 291 290 285 284 284 285 284 288 287 286 286 285 285
301 301 300 299 299 299 300 301 302 301 300 300 300 300 299 298 295 293 293 290 288 285 284 283 283 283 285 286 286 286 286 285
303 303 302 299 299 299 299 300 301 300 299 298 298 298 298 297 294 291 291 288 285 285 283 283 282 282 283 284 285 285 284 284
302 304 303 299 298 297 298 299 300 298 297 297 297 297 297 295 291 289 288 286 285 283 282 282 282 281 282 282 283 283 282 282
303 301 300 301 299 298 297 297 298 296 296 297 295 293 291 290 288 286 286 284 283 282 281 281 281 284 285 283 281 281 281 280
303 303 302 301 299 297 297 297 295 294 292 291 290 288 288 288 287 285 284 283 281 281 281 281 281 285 286 284 281 281 281 280
303 304 304 301 299 297 296 294 292 290 290 289 288 287 287 286 285 285 284 282 281 281 281 281 281 286 286 283 281 282 281 281
301 299 299 298 296 292 290 290 289 289 289 288 287 286 286 285 285 284 283 282 282 281 281 280 281 286 286 283 281 281 280 282
293 293 293 293 291 289 288 287 287 287 288 287 286 285 284 285 284 285 284 282 280 280 281 280 282 286 286 284 281 280 281 282
289 288 287 287 287 286 285 285 286 285 285 285 285 284 285 285 285 283 282 280 279 279 280 280 283 285 286 286 282 282 282 284
287 285 285 285 286 284 283 283 283 283 283 282 283 284 284 283 283 282 281 280 279 278 279 280 281 284 286 287 285 286 285 284
284 282 283 283 284 283 281 282 281 281 280 281 283 283 283 282 282 282 281 280 280 279 279 279 280 282 285 287 288 287 285 285
283 281 281 283 282 282 282 282 281 281 281 281 282 282 282 283 283 283 282 281 281 281 281 281 281 281 283 284 286 286 286 286
281 279 278 279 279 280 284 285 284 283 282 282 282 283 282 283 283 283 285 285 284 284 284 283 280 280 281 282 282 284 284 279
276 274 273 274 274 275 279 285 284 282 282 282 283 282 282 281 280 284 285 285 285 285 285 283 283 284 284 284 284 283 283 276
272 272 272 271 271 271 275 283 284 282 280 279 279 279 279 279 280 278 281 282 281 281 282 281 280 281 282 283 282 281 281 277
270 269 270 269 268 269 274 276 275 277 277 280 280 280 279 279 279 280 280 278 278 280 279 280 280 281 282 282 278 275 274 274
268 267 268 268 266 268 271 273 274 275 275 275 275 276 276 276 277 277 277 277 275 276 276 279 277 276 276 275 274 272 270 269
Wind_Speed
7 6 5 5 7 10 12 13 14 16 16 15 16 16 12 12 13 14 10 11 11 10 11 10 9 13 13 9 10 11 8 7
3 0 2 4 6 8 11 13 14 15 15 16 15 17 15 13 14 12 10 13 13 11 11 12 12 11 12 11 12 12 11 10
5 4 4 5 6 8 10 12 13 13 14 15 15 16 16 14 13 11 12 13 14 12 11 11 11 11 13 14 13 13 13 12
6 8 7 8 9 10 11 12 11 13 14 15 16 16 17 16 13 11 13 13 12 11 12 12 12 12 11 13 13 12 12 13
8 10 9 8 9 11 12 12 12 13 15 15 16 16 15 14 12 11 12 12 12 12 12 12 12 11 10 11 11 11 10 10
10 11 11 11 10 11 12 12 13 15 15 16 13 14 14 13 11 10 12 11 11 12 11 11 12 10 13 12 12 12 12 10
16 11 11 12 12 11 12 13 13 15 15 13 12 11 11 10 11 11 11 10 11 13 14 14 10 19 21 14 11 10 11 11
17 14 11 11 9 12 12 10 12 12 9 9 10 11 12 10 11 11 12 11 12 12 12 13 12 23 22 17 8 9 9 10
15 14 10 6 7 8 5 9 10 10 9 9 10 10 10 10 11 10 9 11 10 10 11 10 9 23 23 19 8 7 8 9
7 8 8 6 4 3 5 6 7 8 9 9 10 10 10 11 11 9 9 8 8 8 9 9 8 22 21 15 8 8 8 8
6 6 5 5 2 3 2 3 5 5 5 6 7 8 9 9 9 8 7 7 7 8 9 11 11 20 21 16 7 8 7 5
2 4 5 5 4 5 3 2 2 3 4 5 6 6 7 8 8 8 9 9 9 9 8 9 12 16 24 23 10 9 9 8
3 5 5 5 4 5 5 3 4 6 6 6 7 6 6 9 8 10 11 10 9 9 7 6 7 11 21 23 18 16 9 9
4 6 7 6 4 7 3 5 6 6 6 7 8 8 8 10 10 8 8 7 8 7 7 7 7 8 21 24 23 19 10 6
6 7 7 7 7 6 7 6 7 8 7 6 7 7 7 6 6 7 7 7 7 8 8 7 7 8 7 8 9 14 9 7
8 8 7 7 8 6 5 6 7 8 6 7 6 6 6 5 5 4 3 5 5 5 5 6 6 8 11 11 7 7 8 4
8 9 7 7 7 6 6 4 8 8 5 5 5 5 5 6 5 9 7 9 7 6 5 2 2 9 16 16 16 13 11 3
7 7 8 7 6 5 5 2 5 7 7 5 4 4 4 4 4 6 7 11 9 4 3 4 3 7 8 10 10 9 11 5
9 8 7 7 7 6 5 5 6 6 5 5 5 4 4 3 4 4 5 4 5 7 6 6 7 7 9 10 11 4 3 3
10 8 7 8 7 7 5 5 7 6 4 4 5 4 4 4 4 4 4 5 5 4 7 9 16 15 14 9 4 3 3 3
Wind_Direction
234 203 200 220 212 211 214 216 209 211 212 211 208 207 197 194 197 204 188 187 177 185 171 169 175 188 182 173 168 166 164 159
272 263 238 214 218 222 219 214 210 211 212 210 207 204 199 201 200 195 178 188 182 181 180 171 175 180 182 172 165 166 158 160
319 297 234 224 220 225 232 224 217 211 207 212 209 205 204 202 194 184 187 191 185 176 178 170 174 171 180 168 171 166 164 160
245 243 230 224 217 217 222 231 220 216 206 208 210 205 207 204 191 184 192 192 183 176 180 174 173 172 178 175 167 166 164 164
243 246 236 228 233 225 224 221 216 217 210 212 210 211 209 202 189 182 188 183 181 184 183 180 172 173 169 168 172 165 164 164
255 257 249 234 235 233 228 214 213 216 217 216 208 206 205 196 185 179 184 186 184 176 181 176 175 177 172 171 169 166 158 158
276 259 249 246 238 228 227 218 208 216 220 212 204 195 194 186 178 175 181 177 176 183 181 181 186 183 179 168 165 165 162 158
267 258 248 245 233 230 229 211 202 208 203 195 183 184 189 184 180 185 185 177 185 187 185 189 182 180 176 163 154 159 167 161
272 276 272 252 238 244 203 191 192 200 192 185 183 187 183 181 186 184 180 184 184 187 187 180 178 177 166 152 149 167 164 165
292 291 295 296 291 187 170 176 185 199 197 183 180 180 178 183 184 176 171 172 176 171 167 161 164 168 160 153 161 164 164 170
324 316 317 357 20 133 148 187 202 194 188 168 169 172 175 173 168 159 157 151 139 140 147 142 151 167 166 166 172 171 172 182
7 23 5 13 58 74 103 172 145 122 126 139 152 152 150 141 142 138 134 128 131 133 146 154 168 173 180 182 174 177 184 201
77 65 48 46 79 92 80 55 86 104 110 115 114 115 126 130 129 132 134 137 146 147 150 166 173 184 188 192 193 194 201 208
96 78 42 32 59 105 90 101 103 98 100 109 113 121 133 134 135 140 143 143 152 162 166 172 175 192 200 202 212 210 214 210
102 84 74 59 75 90 99 97 93 92 97 103 118 131 134 134 146 148 157 163 166 176 186 184 188 200 207 216 224 227 227 220
112 101 81 65 57 32 93 114 108 109 113 117 117 116 117 111 132 150 155 175 173 180 184 177 191 211 199 197 198 205 216 124
89 93 71 57 44 22 1 101 121 114 103 109 122 114 120 118 87 72 108 100 95 142 168 158 140 185 203 210 212 211 199 168
97 103 99 89 65 15 351 82 111 122 123 112 113 118 136 139 137 114 94 84 75 88 145 177 200 203 202 201 199 198 197 211
98 76 73 74 59 6 11 84 89 102 99 126 127 126 136 131 122 138 151 139 90 76 88 124 118 128 146 149 112 100 82 164
100 83 67 67 42 10 17 79 95 99 98 100 98 94 110 123 125 125 119 130 126 115 73 72 90 80 73 76 84 129 133 129